Location: Newark
(36.0797°N, 3.9744°E)
Time: 13:51:42
(UTC+00:00)

Tiros 1 despin weight - Visible Passes

Search period start: 20 January 2021 00:00
Search period end: 30 January 2021 00:00
Orbit: 594 x 641 km, 48.2° (Epoch: 19 January)

Date Brightness Start Highest point End Pass type
(mag) Time Alt. Az. Time Alt. Az. Time Alt. Az.
20 Jan ? 17:33:27 10° NW 17:36:36 18° N 17:39:42 10° NE visible
20 Jan ? 19:16:07 10° NW 19:17:26 15° NNW 19:17:26 15° NNW visible
21 Jan ? 17:50:33 10° NW 17:53:29 17° N 17:56:09 11° NE visible
21 Jan ? 19:32:25 10° NW 19:33:13 14° NNW 19:33:13 14° NNW visible
22 Jan ? 18:07:18 10° NW 18:10:22 18° N 18:11:58 15° NNE visible
22 Jan ? 19:48:40 10° NW 19:49:01 12° NW 19:49:01 12° NW visible
23 Jan ? 18:23:45 10° NW 18:27:13 22° NNE 18:27:50 21° NNE visible
24 Jan ? 18:40:01 10° NW 18:43:47 30° NNE 18:43:47 30° NNE visible
25 Jan ? 18:56:15 10° NW 18:59:50 43° N 18:59:50 43° N visible
26 Jan ? 17:31:20 10° NW 17:35:02 24° NNE 17:38:41 10° ENE visible
26 Jan ? 19:12:34 10° NW 19:16:00 53° NW 19:16:00 53° NW visible
27 Jan ? 17:47:35 10° NW 17:51:43 36° NNE 17:55:16 13° E visible
27 Jan ? 19:29:06 10° WNW 19:32:21 38° WSW 19:32:21 38° WSW visible
28 Jan ? 18:03:51 10° NW 18:08:16 62° NNE 18:11:48 15° ESE visible
28 Jan ? 19:46:07 10° W 19:48:55 21° WSW 19:48:55 21° WSW visible
29 Jan ? 18:20:14 10° WNW 18:24:40 69° SW 18:28:37 13° SE visible
